Regional Weather Roundup
Issued by NWS

Home | Current Version | Previous Version | Graphics & Text | Print | Product List | Glossary On
Versions: 1 2 3 4 5 6 7 8 9 10 11 12 13 14 15 16 17 18 19 20 21 22 23 24 25 26 27 28 29 30 31 32 33 34 35 36 37 38 39 40 41 42 43 44 45 46 47 48 49 50
000
ASUS43 KFSD 220610
RWRSD

WEATHER ROUNDUP FOR SOUTH DAKOTA
NATIONAL WEATHER SERVICE SIOUX FALLS SD
100 AM CDT TUE AUG 22 2017

NOTE: "FAIR" INDICATES FEW OR NO CLOUDS BELOW 12,000 FEET WITH NO
SIGNIFICANT WEATHER AND/OR OBSTRUCTIONS TO VISIBILITY.


SDZ001>005-009-010-012>017-220700-
NORTHWEST AND NORTH CENTRAL SOUTH DAKOTA

CITY           SKY/WX    TMP DP  RH WIND       PRES   REMARKS
BUFFALO          N/A     62  39  42 NE3       30.15R
FAITH            N/A     59  46  62 N7        30.18R
MOBRIDGE       CLEAR     50  47  89 N5        30.11S
$$

SDZ012>016-024>037-041>051-057-063-072>074-220700-
SOUTHWEST AND SOUTH CENTRAL SOUTH DAKOTA

CITY           SKY/WX    TMP DP  RH WIND       PRES   REMARKS
RAPID CTY ARPT CLEAR     55  42  61 W7        30.22R
PIERRE         CLEAR     60  47  61 N10       30.12R
CUSTER         CLEAR     49  35  58 N5        30.32R
ELLSWORTH AFB  CLEAR     63  40  43 CALM      30.21R
PHILIP         CLEAR     53  45  74 CALM      30.16S
SPEARFISH      FAIR      54  39  58 S7        30.26R
WINNER         FAIR      58  53  84 NW5       30.14R
$$

SDZ004>011-016>023-039-040-220700-
NORTHEAST SOUTH DAKOTA

CITY           SKY/WX    TMP DP  RH WIND       PRES   REMARKS
ABERDEEN       CLEAR     57  48  72 NW10      30.08R
WATERTOWN      CLEAR     59  54  83 N12       30.05R
BROOKINGS      CLEAR     60  56  86 NW8       30.04R
SISSETON         N/A     56  53  90 NW8       30.03R
$$

SDZ017-020-022-023-036>040-048>070-220700-
SOUTHEAST SOUTH DAKOTA

CITY           SKY/WX    TMP DP  RH WIND       PRES   REMARKS
SIOUX FALLS    CLEAR     64  63  96 NW13      30.02R
HURON          CLEAR     55  52  89 NW7       30.07R
CHAMBERLAIN    CLEAR     64  55  71 NW8       30.12S
MITCHELL       CLEAR     60  55  83 NW10      30.07R
YANKTON        CLEAR     66  63  90 W12       30.03R
$$

ABBREVIATIONS USED IN REMARKS
   TC - TEMPERATURE IN CELSIUS
  WCI - WIND CHILL INDEX
   HX - HEAT INDEX
  VSB - VISIBILITY





USA.gov is the U.S. government's official web portal to all federal, state and local government web resources and services.